Location: Newark
(45.5000°N, 11.4167°E)
Time: 20:58:50
(UTC+00:00)

Transit 2A Rocket - Pass Details

Date: 26 August 2019
Orbit: 594 x 910 km, 66.7° (Epoch: 18 October)

Event Time Altitude Azimuth Distance (km) Brightness Sun altitude
Rises 20:15:38 0° 283° (WNW) 3,317 9.3 -21.0°
Reaches altitude 10° 20:20:43 10° 324° (NW) 2,287 8.6 -21.7°
Maximum altitude 20:21:36 10° 333° (NNW) 2,243 8.4 -21.8°
Drops below altitude 10° 20:22:28 10° 343° (NNW) 2,252 8.2 -21.9°
Sets 20:27:14 0° 25° (NNE) 3,073 8.4 -22.5°
